[Date Prev][Date Next][Thread Prev][Thread Next] - [Date Index][Thread Index][Author Index]
2 Line ISS Keps 12-24
- Subject: [sarex] 2 Line ISS Keps 12-24
- From: "Dave Larsen PhD" <doc@xxxxxxxxxxx>
- Date: Wed, 24 Dec 2003 02:10:57 -0800
ISS
1 25544U 98067A 03358.18606481 .00020921 00000-0 20637-3 0 9268
2 25544 51.6288 141.1097 0006059 291.7722 68.2754 15.65874738290710
----
Via the sarex mailing list at AMSAT.ORG courtesy of AMSAT-NA.
To unsubscribe, send "unsubscribe sarex" to Majordomo@amsat.org
AMSAT Home